Location: ??
(35.1715°N, 139.6450°E)
Time: 21:51:15
(UTC+00:00)

SJ 16-02 - Pass Details

Date: 05 August 2024
Orbit: 593 x 603 km, 75.0° (Epoch: 18 September)

Event Time Altitude Azimuth Distance (km) Brightness Sun altitude
Rises 12:18:30 0° 358° (N) 2,861 5.5 -27.2°
Reaches altitude 10° 12:21:08 10° 13° (NNE) 1,952 4.3 -27.6°
Enters shadow 12:22:51 18° 33° (NNE) 1,495 3.4 -27.8°
